Location: Caltech
(34.1382°N, 118.1253°W)
Time: 10:11:04
(UTC-07:00)

Cosmos 2251 Rocket - Visible Passes

Search period start: 26 April 2015 00:00
Search period end: 06 May 2015 00:00
Orbit: 766 x 792 km, 74.0° (Epoch: 25 April)

Date Brightness Start Highest point End Pass type
(mag) Time Alt. Az. Time Alt. Az. Time Alt. Az.
26 Apr 5.5 22:27:40 19° NNE 22:27:40 19° NNE 22:29:11 10° NNE visible
27 Apr 6.2 00:08:06 14° NW 00:08:06 14° NW 00:09:42 10° NNW visible
27 Apr 5.4 21:53:43 17° NE 21:53:43 17° NE 21:55:05 10° NE visible
27 Apr 5.7 23:34:09 22° NW 23:34:09 22° NW 23:36:58 10° N visible
28 Apr 5.5 21:19:39 13° ENE 21:19:39 13° ENE 21:20:35 10° NE visible
28 Apr 5.0 23:00:04 34° NW 23:00:04 34° NW 23:03:44 10° N visible
29 Apr 4.0 22:25:48 57° NNW 22:25:48 57° NNW 22:30:15 10° N visible
30 Apr 3.3 21:51:17 74° ESE 21:51:17 74° ESE 21:56:32 10° NNE visible
30 Apr 6.3 23:32:23 10° WNW 23:34:18 12° WNW 23:35:54 10° NW visible
01 May 3.8 21:16:24 37° SE 21:17:37 43° ESE 21:22:35 10° NNE visible
01 May 5.9 22:56:45 11° WSW 23:00:11 19° WNW 23:03:47 10° NNW visible
02 May 4.4 20:40:50 15° SE 20:43:59 26° E 20:48:19 10° NE visible
02 May 5.2 22:21:35 10° SW 22:26:11 30° WNW 22:30:46 10° N visible
03 May 5.0 20:07:36 10° SE 20:10:23 15° E 20:13:28 10° ENE visible
03 May 4.3 21:47:14 10° SW 21:52:18 50° WNW 21:57:24 10° N visible
04 May 3.5 21:13:17 10° SSW 21:18:31 84° WNW 21:23:48 10° NNE visible
05 May 3.5 20:39:43 10° S 20:44:48 58° ESE 20:49:58 10° NNE visible
05 May 6.4 22:24:36 10° W 22:27:37 15° WNW 22:30:24 10° NNW visible
